FW3054 Weather Reports


Display with metric or nautical units.
time (UTC)temp
F
wind
direction
speed
MPH
gust
MPH
rain 1hr
in
rain 24hr
in
rain mn
in
humidity
%
barometer
mb
20260831103517 65 0.0 0.0 0.00 0.00 0.00 84 1023.4
20260831102517 65 0.0 0.0 0.00 0.00 0.00 83 1023.4
20260831101557 65 0.0 0.0 0.00 0.00 0.00 83 1023.3
20260831100517 65 0.0 0.0 0.00 0.00 0.00 83 1023.4
20260831095517 65 0.0 0.0 0.00 0.00 0.00 83 1023.3
20260831094537 65 0.0 0.0 0.00 0.00 0.00 84 1023.2
20260831093517 65 0.0 0.0 0.00 0.00 0.00 84 1023.3
20260831092517 65 0.0 0.0 0.00 0.00 0.00 85 1023.6
20260831091537 65 0.0 0.0 0.00 0.00 0.00 85 1023.6
20260831090517 66 0.0 0.0 0.00 0.00 0.00 85 1023.4
20260831085517 66 0.0 0.0 0.00 0.00 0.00 85 1023.8
20260831084517 66 0.0 0.0 0.00 0.00 0.00 85 1023.7
20260831083517 66 0.0 0.0 0.00 0.00 0.00 85 1023.8
20260831082557 66 0.0 0.0 0.00 0.00 0.00 84 1023.4
20260831081517 66 0.0 0.0 0.00 0.00 0.00 85 1023.4
20260831080537 66 0.0 0.0 0.00 0.00 0.00 85 1023.5
20260831075517 66 0.0 0.0 0.00 0.00 0.00 85 1023.7
20260831074517 67 0.0 0.0 0.00 0.00 0.00 85 1023.9
20260831073517 67 0.0 0.0 0.00 0.00 0.00 86 1023.9
20260831072517 67 0.0 0.0 0.00 0.00 0.00 86 1023.9
20260831071517 67 0.0 0.0 0.00 0.00 0.00 86 1023.9
20260831070536 67 0.0 0.0 0.00 0.00 0.00 87 1023.8
20260831065516 67 0.0 0.0 0.00 0.00 0.00 87 1023.7
20260831064517 67 0.0 0.0 0.00 0.00 0.00 87 1023.7
20260831063517 67 0.0 0.0 0.00 0.00 0.00 87 1023.6
20260831062517 68 0.0 0.0 0.00 0.00 0.00 87 1023.8
20260831061517 68 0.0 0.0 0.00 0.00 0.00 88 1023.9
20260831060516 68 0.0 0.0 0.00 0.00 0.00 88 1024.0
20260831055517 68 0.0 0.0 0.00 0.00 0.00 88 1024.0
20260831054517 68 0.0 0.0 0.00 0.00 0.00 89 1023.8
20260831053516 68 0.0 0.0 0.00 0.00 0.00 89 1024.1
20260831052517 68 0.0 0.0 0.00 0.00 0.00 89 1023.8
20260831051516 69 0.0 0.0 0.00 0.00 0.00 89 1023.9
20260831050516 69 0.0 0.0 0.00 0.00 0.00 89 1023.8
20260831045516 69 0.0 0.0 0.00 0.00 0.00 89 1023.6
20260831044516 69 0.0 0.0 0.00 0.00 0.00 90 1023.6
20260831043516 69 0.0 0.0 0.00 0.00 0.00 90 1023.7
20260831042518 70 0.0 0.0 0.00 0.00 0.00 90 1023.5
20260831041536 70 0.0 0.0 0.00 0.00 0.00 90 1023.5
20260831040516 70 0.0 0.0 0.00 0.00 0.00 90 1023.5
20260831035516 70 0.0 0.0 0.00 0.00 0.00 89 1023.3
20260831034517 71 0.0 0.0 0.00 0.00 0.00 89 1023.5
20260831033517 71 0.0 0.0 0.00 0.00 0.00 89 1023.5
20260831032516 72 0.0 0.0 0.00 0.00 0.00 89 1023.5
20260831031516 72 0.0 0.0 0.00 0.00 0.00 88 1023.6
20260831030557 72 0.0 0.0 0.00 0.00 0.00 88 1023.6
20260831025516 72 0.0 0.0 0.00 0.00 0.00 88 1023.6
20260831024536 73 0.0 0.0 0.00 0.00 0.00 87 1023.7
20260831023517 73 0.0 0.0 0.00 0.00 0.00 87 1023.7
20260831022517 74 0.0 1.0 0.00 0.00 0.00 86 1023.6
20260831021517 74 0.0 1.0 0.00 0.00 0.00 85 1023.6
20260831020516 75 0.0 0.0 0.00 0.00 0.00 84 1023.5
20260831015517 75 0.0 0.0 0.00 0.00 0.00 83 1023.4
20260831014536 76 0.0 1.0 0.00 0.00 0.00 83 1023.4
20260831013516 76 0.0 0.0 0.00 0.00 0.00 82 1023.3
20260831012516 76 0.0 0.0 0.00 0.00 0.00 81 1023.0
20260831011516 76 0.0 0.0 0.00 0.00 0.00 82 1022.8
20260831010536 76 0.0 0.0 0.00 0.00 0.00 82 1022.6
20260831005516 76 0.0 1.0 0.00 0.00 0.00 83 1022.5
20260831004516 76 0.0 2.0 0.00 0.00 0.00 83 1022.4
20260831003536 76 0.0 2.0 0.00 0.00 0.00 82 1022.4
20260831002516 77 0.0 1.0 0.00 0.00 0.00 81 1022.4
20260831001516 77 0.0 1.0 0.00 0.00 0.00 80 1022.5
20260831000516 78 0.0 0.0 0.00 0.00 0.00 79 1022.4
20260830235516 78 0.0 0.0 0.00 0.00 0.00 78 1022.3
20260830234516 78 0.0 0.0 0.00 0.00 0.00 78 1022.2
20260830233516 78 0.0 1.0 0.00 0.00 0.00 78 1022.0
20260830232516 79 0.0 0.0 0.00 0.00 0.00 77 1022.1
20260830231516 79 0.0 1.0 0.00 0.00 0.00 76 1022.1
20260830230516 79 0.0 0.0 0.00 0.00 0.00 75 1022.0
20260830225516 80 0.0 1.0 0.00 0.00 0.00 75 1022.1
20260830224516 81 0.0 1.0 0.00 0.00 0.00 74 1022.3
20260830223516 81 0.0 1.0 0.00 0.00 0.00 70 1022.2
20260830222516 82 0.0 0.0 0.00 0.00 0.00 70 1022.2
20260830221516 82 0.0 0.0 0.00 0.00 0.00 68 1022.3
20260830220516 82 0.0 0.0 0.00 0.00 0.00 68 1022.1
20260830215516 83 0.0 0.0 0.00 0.00 0.00 68 1022.1
20260830214516 84 0.0 0.0 0.00 0.00 0.00 64 1022.2
20260830213536 84 0.0 0.0 0.00 0.00 0.00 59 1022.1
20260830212516 85 0.0 0.0 0.00 0.00 0.00 58 1022.2
20260830211516 85 0.0 0.0 0.00 0.00 0.00 58 1022.3
20260830210516 87 0.0 0.0 0.00 0.00 0.00 55 1022.3
20260830205516 88 0.0 1.0 0.00 0.00 0.00 53 1022.4
20260830204516 89 0.0 2.0 0.00 0.00 0.00 52 1022.6
20260830203516 90 0.0 0.0 0.00 0.00 0.00 55 1022.6
20260830202516 90 0.0 1.0 0.00 0.00 0.00 51 1022.7
20260830201556 90 0.0 1.0 0.00 0.00 0.00 51 1022.6
20260830200516 90 0.0 1.0 0.00 0.00 0.00 54 1022.8
20260830195516 89 0.0 1.0 0.00 0.00 0.00 53 1022.9
20260830194516 90 135 1.0 1.0 0.00 0.00 0.00 53 1023.0
20260830193516 90 0.0 1.0 0.00 0.00 0.00 53 1023.1
20260830192556 90 0.0 1.0 0.00 0.00 0.00 53 1023.4
20260830191536 90 0.0 2.0 0.00 0.00 0.00 53 1023.6
20260830190516 90 0.0 1.0 0.00 0.00 0.00 54 1023.9
20260830185515 89 0.0 1.0 0.00 0.00 0.00 55 1023.8
20260830184515 88 0.0 2.0 0.00 0.00 0.00 56 1024.0
20260830183516 88 135 1.0 1.0 0.00 0.00 0.00 58 1024.2
20260830182516 87 0.0 2.0 0.00 0.00 0.00 59 1024.4
20260830181536 87 0.0 0.0 0.00 0.00 0.00 59 1024.5
20260830180516 87 0.0 0.0 0.00 0.00 0.00 59 1024.7
20260830175535 87 0.0 0.0 0.00 0.00 0.00 62 1024.8
20260830174515 87 0.0 0.0 0.00 0.00 0.00 62 1025.1
20260830173515 86 0.0 0.0 0.00 0.00 0.00 64 1025.0
20260830172536 85 0.0 0.0 0.00 0.00 0.00 65 1025.1
20260830171516 85 0.0 0.0 0.00 0.00 0.00 66 1025.3
20260830170516 84 0.0 0.0 0.00 0.00 0.00 69 1025.4
20260830165535 83 0.0 0.0 0.00 0.00 0.00 70 1025.4
20260830164515 82 0.0 0.0 0.00 0.00 0.00 70 1025.5
20260830163517 81 0.0 0.0 0.00 0.00 0.00 74 1025.4
20260830162536 80 0.0 0.0 0.00 0.00 0.00 76 1025.6
20260830161516 79 0.0 0.0 0.00 0.00 0.00 77 1025.5
20260830160515 78 0.0 1.0 0.00 0.00 0.00 80 1025.6
20260830155536 78 0.0 1.0 0.00 0.00 0.00 81 1025.6
20260830154515 77 0.0 1.0 0.00 0.00 0.00 81 1025.5
20260830153515 77 0.0 1.0 0.00 0.00 0.00 82 1025.6
20260830152515 76 0.0 1.0 0.00 0.00 0.00 84 1025.5
20260830151515 75 0.0 1.0 0.00 0.00 0.00 86 1025.6
20260830150515 75 0.0 1.0 0.00 0.00 0.00 86 1025.5
20260830145515 74 0.0 0.0 0.00 0.00 0.00 89 1025.8
20260830144515 73 0.0 1.0 0.00 0.00 0.00 89 1025.7
20260830143535 73 0.0 1.0 0.00 0.00 0.00 90 1025.7
20260830142515 72 0.0 1.0 0.00 0.00 0.00 90 1025.7
20260830141515 72 0.0 1.0 0.00 0.00 0.00 87 1025.6
20260830140515 71 0.0 0.0 0.00 0.00 0.00 82 1025.6
20260830135515 71 0.0 0.0 0.00 0.00 0.00 80 1025.6
20260830134537 70 0.0 0.0 0.00 0.00 0.00 79 1025.4
20260830133515 70 0.0 0.0 0.00 0.00 0.00 80 1025.4
20260830132517 69 0.0 0.0 0.00 0.00 0.00 79 1025.5
20260830131515 69 0.0 0.0 0.00 0.00 0.00 79 1025.7
20260830130517 68 0.0 0.0 0.00 0.00 0.00 78 1025.4
20260830125517 68 0.0 0.0 0.00 0.00 0.00 78 1025.6
20260830124537 68 0.0 0.0 0.00 0.00 0.00 78 1025.6
20260830123517 68 0.0 0.0 0.00 0.00 0.00 78 1025.4
20260830122517 67 0.0 0.0 0.00 0.00 0.00 78 1025.3
20260830121517 67 0.0 0.0 0.00 0.00 0.00 79 1025.3
20260830120517 67 0.0 0.0 0.00 0.00 0.00 79 1025.1
20260830115537 67 0.0 0.0 0.00 0.00 0.00 81 1025.1
20260830114517 67 0.0 0.0 0.00 0.00 0.00 80 1025.0
20260830113517 67 0.0 0.0 0.00 0.00 0.00 80 1025.0
20260830112517 67 0.0 0.0 0.00 0.00 0.00 80 1024.9
20260830111517 67 0.0 0.0 0.00 0.00 0.00 79 1024.8
20260830110517 67 0.0 0.0 0.00 0.00 0.00 80 1024.6
20260830105517 67 0.0 0.0 0.00 0.00 0.00 80 1024.4
20260830104517 67 0.0 0.0 0.00 0.00 0.00 80 1024.4